星链-5703 (STARLINK-5703 )

导读

STARLINK-5703是美国SpaceX星链星座的卫星之一,于2023年2月12日发射升空。星链计划旨在构建全球卫星互联网星座,为全球提供低延迟宽带互联网服务,该卫星已在轨运行超过三年,是星链星座部署过程中的一颗组网卫星,助力星链完成全球覆盖的组网目标。

Basic Information
目录编号:
55593
目录名称:
STARLINK-5703
国际标识:
2023-020AA
轨道中心:
EARTH
卫星名称:
星链-5703
卫星全名:
星链-5703 (STARLINK-5703 )
卫星状态:
在轨 (已飞行1300 天)
发射日期:
2023-02-12 UTC
国别 :
美国 (US)
星等 :
--
Orbit Information
数据来源 国际轨道数据
星历时间: 2026-09-03T20:27:18+0800
21小时前
查看轨道信息
半长轴: 6861.192km
偏心率: 0.0000569
轨道倾角: 43.002°
近地点辐角 267.316°
升交点赤经 80.558°
平近点角 92.763°
近地点: 482.664km
远地点: 483.446km
周期: 94.267分钟
每日圈数: 15.275782
Detailed Information
固有亮度:
5
最大亮度:
2.5
卫星平台:
Starlink v1.5
覆盖范围:
全球
运营商:
太空探索技术公司
运营商所在国:
美国
制造商(研发单位):
太空探索技术公司
制造商所在国:
美国
使用方式:
暂无
Satellite Introduction
星链(Starlink)计划是由太空探索技术公司(SpaceX)提出的一个巨型低轨卫星互联网星座项目,计划在2019年至2024年间在太空搭建由约1.2万颗卫星组成的“星链”网络,其中1584颗将部署在地球上空550千米处的近地轨道,并从2020年开始工作。该卫星仍在工作。
2D Orbit Map
3D Orbit Map
Orbit Altitude Analysis Chart
Orbit Inclination Analysis Chart
Orbit Comprehensive Analysis Chart
View Comprehensive Chart
Conjunction Data List
Event ID Objects TCA Miss Dist (km) Collision Risk Probability Collision Risk Index (CRI) Action
CDM_260906-135305-559306-801121
2026-09-06T
13:53:23+0000
0.696 km
远距离
3.577435E-5 中风险 0.66
CDM_260905-131905-559306-221521
2026-09-05T
13:19:42+0000
1.164 km
极远距离
1.003814E-5 中风险 0.55
CDM_260906-012305-559306-409521
2026-09-06T
01:23:10+0000
1.292 km
极远距离
5.823141E-6 低风险 0.5
CDM_260906-024005-559306-221521
2026-09-06T
02:40:01+0000
1.713 km
极远距离
2.853436E-6 低风险 0.44
CDM_260905-145305-559306-221521
2026-09-05T
14:53:52+0000
2.022 km
极远距离
1.837307E-6 低风险 0.4
CDM_260904-121905-559306-726723
OBJECT V (67267)
2026-09-04T
12:19:51+0000
2.397 km
极远距离
1.725785E-6 低风险 0.4
CDM_260905-114505-559306-221521
2026-09-05T
11:45:33+0000
2.646 km
极远距离
1.084662E-6 低风险 0.36
CDM_260906-010505-559306-221521
2026-09-06T
01:05:51+0000
2.844 km
极远距离
9.803741E-7 极低风险 0.35